Location: Knowlton
(51.2333°N, 1.2667°E)
Time: 03:34:38
(UTC+00:00)

Meteor 2-15 Rocket - Pass Details

Date: 18 April 2021
Orbit: 939 x 956 km, 82.5° (Epoch: 06 May)

Event Time Altitude Azimuth Distance (km) Brightness Sun altitude
Exits shadow 22:22:07 52° 188° (S) 1,161 4.5 -24.5°
Maximum altitude 22:23:45 89° 102° (ESE) 948 4.3 -24.6°
Drops below altitude 10° 22:29:52 10° 11° (N) 2,666 7.5 -25.0°
Sets 22:32:22 0° 11° (NNE) 3,615 8.3 -25.1°
